QPF
0.00 0.00 0.00 0.00 0.00 0.00 0.00 0.00 0.00 0.00 0.00 0.00 0.00 0.00 0.00 0.00 0.00 0.00 0.00 0.00 0.00 0.00 0.00 0.01 0.02 0.03 0.03 0.03 0.03 0.03 0.02 0.03 0.03 0.02 0.03 0.03 0.03 0.02 0.02 0.02 0.02 0.01 0.02 0.02 0.02 0.02 0.02 0.01 0.01
0.00 0.00 0.00 0.00 0.00 0.00 0.00 0.00 0.00 0.00 0.00 0.00 0.00 0.00 0.00 0.00 0.00 0.00 0.00 0.00 0.00 0.00 0.00 0.01 0.02 0.03 0.04 0.04 0.04 0.03 0.03 0.03 0.04 0.04 0.04 0.03 0.04 0.03 0.02 0.02 0.02 0.02 0.03 0.03 0.03 0.02 0.02 0.01 0.01
0.00 0.00 0.00 0.00 0.00 0.00 0.00 0.00 0.00 0.00 0.00 0.00 0.00 0.00 0.00 0.00 0.00 0.00 0.00 0.00 0.00 0.00 0.00 0.01 0.02 0.03 0.04 0.04 0.05 0.04 0.04 0.05 0.05 0.06 0.06 0.06 0.05 0.04 0.03 0.03 0.03 0.02 0.03 0.03 0.04 0.03 0.02 0.01 0.01
0.00 0.00 0.00 0.00 0.00 0.00 0.00 0.00 0.00 0.00 0.00 0.00 0.00 0.00 0.00 0.00 0.00 0.00 0.00 0.00 0.00 0.00 0.01 0.01 0.03 0.04 0.04 0.05 0.06 0.06 0.06 0.06 0.07 0.07 0.08 0.08 0.07 0.05 0.04 0.04 0.04 0.04 0.03 0.03 0.03 0.02 0.02 0.01 0.00
0.00 0.00 0.00 0.00 0.00 0.00 0.00 0.00 0.00 0.00 0.00 0.00 0.00 0.00 0.00 0.00 0.00 0.00 0.00 0.00 0.00 0.00 0.01 0.02 0.04 0.05 0.05 0.05 0.06 0.08 0.07 0.08 0.08 0.10 0.11 0.11 0.09 0.08 0.06 0.05 0.04 0.04 0.03 0.03 0.02 0.02 0.01 0.01 0.01
0.00 0.00 0.00 0.00 0.00 0.00 0.00 0.00 0.00 0.00 0.00 0.00 0.00 0.00 0.00 0.00 0.00 0.00 0.00 0.00 0.00 0.01 0.02 0.03 0.05 0.06 0.06 0.07 0.07 0.08 0.09 0.09 0.09 0.10 0.12 0.13 0.12 0.11 0.08 0.07 0.05 0.04 0.04 0.03 0.03 0.02 0.01 0.01 0.01
0.00 0.00 0.00 0.00 0.00 0.00 0.00 0.00 0.00 0.00 0.00 0.00 0.00 0.00 0.00 0.00 0.00 0.00 0.01 0.01 0.01 0.02 0.02 0.03 0.05 0.06 0.07 0.08 0.08 0.09 0.10 0.10 0.10 0.11 0.12 0.14 0.15 0.14 0.12 0.09 0.06 0.06 0.05 0.05 0.04 0.03 0.02 0.01 0.01
0.00 0.00 0.00 0.00 0.00 0.00 0.00 0.00 0.00 0.00 0.00 0.00 0.00 0.00 0.00 0.00 0.00 0.00 0.01 0.02 0.02 0.03 0.03 0.03 0.05 0.06 0.07 0.08 0.08 0.09 0.10 0.11 0.12 0.13 0.13 0.13 0.16 0.16 0.14 0.12 0.09 0.08 0.07 0.06 0.05 0.04 0.03 0.02 0.01
0.00 0.00 0.00 0.00 0.00 0.00 0.00 0.00 0.00 0.00 0.00 0.00 0.00 0.00 0.00 0.00 0.00 0.00 0.01 0.03 0.04 0.03 0.04 0.05 0.05 0.06 0.07 0.07 0.08 0.09 0.11 0.13 0.15 0.16 0.16 0.17 0.18 0.18 0.17 0.15 0.14 0.11 0.10 0.08 0.07 0.06 0.04 0.03 0.01
0.01 0.00 0.00 0.00 0.00 0.00 0.00 0.00 0.00 0.00 0.00 0.00 0.00 0.00 0.00 0.00 0.01 0.01 0.01 0.03 0.05 0.05 0.06 0.06 0.06 0.06 0.07 0.08 0.09 0.10 0.12 0.14 0.16 0.16 0.16 0.18 0.18 0.18 0.16 0.16 0.16 0.15 0.12 0.10 0.09 0.07 0.05 0.04 0.02
0.01 0.01 0.00 0.00 0.00 0.00 0.00 0.00 0.00 0.00 0.00 0.00 0.00 0.01 0.00 0.00 0.01 0.02 0.02 0.03 0.04 0.06 0.07 0.07 0.06 0.07 0.07 0.07 0.08 0.10 0.11 0.13 0.15 0.16 0.16 0.17 0.18 0.18 0.17 0.15 0.17 0.15 0.13 0.12 0.10 0.09 0.06 0.04 0.02
0.00 0.01 0.00 0.00 0.00 0.00 0.00 0.00 0.00 0.00 0.00 0.00 0.00 0.00 0.00 0.01 0.02 0.02 0.03 0.04 0.04 0.05 0.08 0.08 0.07 0.06 0.06 0.06 0.07 0.09 0.10 0.12 0.14 0.16 0.17 0.16 0.16 0.15 0.15 0.14 0.14 0.14 0.13 0.10 0.08 0.08 0.06 0.04 0.02
0.00 0.00 0.00 0.00 0.00 0.00 0.00 0.00 0.00 0.00 0.00 0.00 0.00 0.00 0.00 0.01 0.02 0.02 0.03 0.05 0.05 0.04 0.07 0.10 0.08 0.06 0.07 0.07 0.07 0.08 0.09 0.11 0.13 0.17 0.18 0.15 0.14 0.13 0.13 0.13 0.13 0.13 0.13 0.11 0.09 0.08 0.06 0.05 0.03
0.00 0.00 0.00 0.00 0.00 0.00 0.00 0.00 0.00 0.00 0.00 0.00 0.00 0.00 0.00 0.01 0.02 0.02 0.03 0.06 0.07 0.05 0.06 0.09 0.10 0.07 0.07 0.07 0.07 0.07 0.09 0.10 0.13 0.15 0.19 0.18 0.14 0.13 0.12 0.12 0.12 0.12 0.12 0.12 0.10 0.08 0.07 0.05 0.04
0.00 0.00 0.00 0.00 0.00 0.00 0.00 0.00 0.00 0.00 0.01 0.01 0.01 0.01 0.01 0.01 0.02 0.03 0.03 0.05 0.08 0.09 0.08 0.09 0.10 0.09 0.07 0.07 0.07 0.07 0.08 0.10 0.12 0.15 0.17 0.19 0.16 0.13 0.12 0.12 0.12 0.11 0.12 0.12 0.12 0.10 0.08 0.07 0.05
0.00 0.00 0.00 0.00 0.00 0.00 0.00 0.00 0.00 0.00 0.01 0.02 0.02 0.02 0.01 0.01 0.02 0.04 0.04 0.04 0.07 0.11 0.11 0.11 0.12 0.10 0.09 0.08 0.08 0.06 0.07 0.09 0.12 0.15 0.17 0.18 0.18 0.16 0.14 0.12 0.14 0.14 0.14 0.14 0.13 0.12 0.11 0.08 0.07
0.01 0.00 0.00 0.00 0.00 0.00 0.00 0.00 0.00 0.00 0.01 0.01 0.02 0.03 0.03 0.02 0.02 0.03 0.04 0.04 0.05 0.08 0.11 0.12 0.13 0.13 0.12 0.10 0.08 0.07 0.07 0.09 0.13 0.15 0.17 0.18 0.18 0.19 0.18 0.14 0.14 0.17 0.19 0.17 0.14 0.13 0.12 0.11 0.08
0.01 0.00 0.00 0.00 0.00 0.00 0.00 0.00 0.01 0.01 0.01 0.01 0.02 0.03 0.03 0.04 0.04 0.04 0.05 0.04 0.04 0.05 0.08 0.11 0.14 0.16 0.14 0.13 0.10 0.09 0.08 0.08 0.13 0.17 0.17 0.18 0.19 0.19 0.21 0.19 0.17 0.18 0.20 0.18 0.15 0.14 0.14 0.14 0.12
0.00 0.00 0.00 0.00 0.00 0.00 0.00 0.00 0.01 0.00 0.01 0.01 0.02 0.03 0.04 0.06 0.07 0.06 0.06 0.05 0.04 0.04 0.06 0.08 0.13 0.16 0.17 0.15 0.12 0.09 0.08 0.08 0.11 0.17 0.20 0.20 0.20 0.23 0.23 0.22 0.21 0.20 0.19 0.16 0.14 0.14 0.15 0.14 0.13
0.00 0.00 0.00 0.00 0.00 0.00 0.00 0.00 0.01 0.00 0.01 0.01 0.03 0.04 0.05 0.06 0.07 0.06 0.06 0.05 0.04 0.04 0.04 0.06 0.10 0.12 0.15 0.17 0.14 0.10 0.08 0.08 0.09 0.13 0.20 0.21 0.20 0.23 0.28 0.26 0.22 0.21 0.20 0.17 0.14 0.14 0.13 0.15 0.16
0.00 0.00 0.00 0.00 0.00 0.00 0.00 0.00 0.00 0.00 0.00 0.01 0.02 0.03 0.04 0.06 0.07 0.08 0.08 0.06 0.06 0.04 0.03 0.04 0.07 0.07 0.09 0.15 0.17 0.14 0.12 0.09 0.10 0.12 0.16 0.20 0.21 0.19 0.25 0.30 0.26 0.22 0.21 0.19 0.15 0.13 0.12 0.13 0.13
0.00 0.00 0.01 0.01 0.02 0.01 0.01 0.01 0.00 0.00 0.00 0.00 0.01 0.02 0.02 0.03 0.04 0.06 0.09 0.08 0.06 0.05 0.04 0.05 0.05 0.06 0.07 0.11 0.17 0.18 0.15 0.10 0.08 0.10 0.14 0.18 0.21 0.20 0.21 0.27 0.29 0.26 0.23 0.20 0.16 0.13 0.12 0.12 0.13
0.00 0.00 0.01 0.01 0.02 0.02 0.02 0.02 0.01 0.00 0.00 0.00 0.00 0.01 0.01 0.02 0.03 0.03 0.05 0.06 0.06 0.06 0.06 0.05 0.05 0.05 0.07 0.11 0.15 0.19 0.19 0.15 0.11 0.10 0.13 0.17 0.21 0.23 0.23 0.25 0.29 0.28 0.25 0.21 0.17 0.15 0.13 0.12 0.12
0.01 0.01 0.01 0.01 0.01 0.02 0.02 0.01 0.00 0.00 0.01 0.00 0.00 0.00 0.01 0.02 0.03 0.03 0.03 0.04 0.04 0.05 0.06 0.05 0.05 0.05 0.06 0.09 0.13 0.17 0.18 0.18 0.17 0.15 0.15 0.19 0.24 0.27 0.30 0.27 0.27 0.29 0.27 0.22 0.17 0.16 0.15 0.13 0.12
0.01 0.01 0.01 0.00 0.00 0.00 0.00 0.00 0.00 0.00 0.00 0.01 0.01 0.01 0.01 0.02 0.02 0.02 0.02 0.03 0.03 0.05 0.07 0.07 0.07 0.06 0.07 0.10 0.12 0.15 0.17 0.18 0.18 0.20 0.21 0.22 0.26 0.30 0.31 0.31 0.29 0.31 0.30 0.24 0.18 0.17 0.17 0.14 0.12
0.00 0.00 0.01 0.00 0.00 0.00 0.00 0.00 0.00 0.00 0.00 0.00 0.01 0.01 0.01 0.02 0.02 0.01 0.02 0.02 0.03 0.04 0.04 0.04 0.05 0.08 0.09 0.12 0.13 0.15 0.16 0.18 0.19 0.20 0.23 0.26 0.26 0.28 0.29 0.30 0.29 0.31 0.32 0.27 0.21 0.19 0.18 0.16 0.13
0.00 0.00 0.00 0.00 0.00 0.00 0.00 0.00 0.00 0.00 0.00 0.00 0.00 0.00 0.01 0.01 0.01 0.01 0.02 0.02 0.03 0.04 0.05 0.05 0.06 0.09 0.10 0.13 0.14 0.15 0.16 0.17 0.18 0.20 0.24 0.26 0.30 0.30 0.31 0.30 0.30 0.32 0.32 0.28 0.24 0.22 0.20 0.18 0.15
0.00 0.00 0.00 0.00 0.01 0.00 0.00 0.00 0.00 0.00 0.00 0.00 0.00 0.00 0.01 0.01 0.01 0.01 0.01 0.02 0.03 0.04 0.06 0.07 0.08 0.09 0.12 0.13 0.17 0.16 0.15 0.16 0.17 0.19 0.23 0.28 0.31 0.31 0.33 0.33 0.29 0.29 0.32 0.30 0.25 0.24 0.22 0.20 0.17
0.00 0.00 0.00 0.00 0.01 0.01 0.01 0.00 0.00 0.00 0.00 0.00 0.00 0.00 0.01 0.01 0.01 0.01 0.01 0.01 0.03 0.04 0.05 0.06 0.08 0.09 0.11 0.13 0.15 0.16 0.17 0.18 0.17 0.19 0.21 0.25 0.32 0.32 0.31 0.35 0.35 0.30 0.28 0.30 0.28 0.24 0.23 0.22 0.19
0.00 0.00 0.00 0.01 0.01 0.01 0.01 0.00 0.00 0.00 0.00 0.00 0.00 0.00 0.01 0.01 0.02 0.02 0.01 0.01 0.02 0.04 0.06 0.07 0.08 0.10 0.11 0.10 0.12 0.15 0.17 0.19 0.18 0.17 0.20 0.23 0.25 0.31 0.31 0.34 0.39 0.34 0.28 0.26 0.26 0.24 0.22 0.21 0.18
MSLP
1011.07 1011.38 1011.97 1012.79 1013.74 1014.68 1015.46 1015.99 1016.21 1016.11 1015.80 1015.41 1015.08 1014.95 1015.09 1015.48 1016.04 1016.63 1017.08 1017.24 1017.02 1016.43 1015.51 1014.40 1013.24 1012.19 1011.33 1010.70 1010.30 1010.06 1009.90 1009.76 1009.59 1009.40 1009.21 1009.06 1008.99 1009.04 1009.18 1009.41 1009.67 1009.94 1010.17 1010.35 1010.51 1010.65 1010.80 1010.98 1011.20
1011.34 1011.80 1012.55 1013.51 1014.56 1015.55 1016.37 1016.88 1017.06 1016.92 1016.57 1016.15 1015.80 1015.65 1015.75 1016.10 1016.60 1017.10 1017.46 1017.54 1017.26 1016.63 1015.71 1014.63 1013.53 1012.55 1011.77 1011.21 1010.85 1010.62 1010.45 1010.28 1010.06 1009.79 1009.50 1009.25 1009.08 1009.02 1009.07 1009.21 1009.42 1009.66 1009.89 1010.09 1010.28 1010.47 1010.67 1010.90 1011.15
1011.74 1012.33 1013.19 1014.24 1015.35 1016.37 1017.17 1017.67 1017.82 1017.65 1017.28 1016.85 1016.48 1016.29 1016.33 1016.59 1016.97 1017.34 1017.57 1017.55 1017.21 1016.57 1015.69 1014.69 1013.71 1012.85 1012.18 1011.71 1011.40 1011.19 1011.01 1010.79 1010.49 1010.13 1009.75 1009.39 1009.10 1008.93 1008.88 1008.95 1009.10 1009.31 1009.54 1009.78 1010.02 1010.27 1010.53 1010.82 1011.12
1012.29 1012.98 1013.91 1014.98 1016.09 1017.07 1017.83 1018.28 1018.40 1018.23 1017.86 1017.43 1017.06 1016.84 1016.80 1016.94 1017.18 1017.39 1017.48 1017.35 1016.96 1016.33 1015.53 1014.66 1013.83 1013.12 1012.57 1012.19 1011.93 1011.73 1011.51 1011.23 1010.85 1010.41 1009.93 1009.48 1009.10 1008.83 1008.70 1008.70 1008.80 1008.99 1009.22 1009.49 1009.78 1010.09 1010.42 1010.77 1011.12
1012.97 1013.72 1014.67 1015.72 1016.75 1017.65 1018.31 1018.69 1018.78 1018.60 1018.26 1017.86 1017.50 1017.26 1017.17 1017.19 1017.28 1017.34 1017.28 1017.06 1016.64 1016.04 1015.34 1014.61 1013.94 1013.38 1012.95 1012.64 1012.41 1012.18 1011.91 1011.56 1011.12 1010.60 1010.06 1009.55 1009.11 1008.79 1008.59 1008.53 1008.59 1008.75 1008.98 1009.27 1009.60 1009.97 1010.36 1010.75 1011.15
1013.77 1014.55 1015.46 1016.42 1017.32 1018.08 1018.62 1018.90 1018.94 1018.77 1018.48 1018.13 1017.82 1017.59 1017.45 1017.39 1017.35 1017.27 1017.09 1016.79 1016.35 1015.81 1015.22 1014.63 1014.10 1013.66 1013.32 1013.05 1012.80 1012.53 1012.19 1011.77 1011.28 1010.73 1010.16 1009.63 1009.17 1008.82 1008.58 1008.48 1008.49 1008.61 1008.82 1009.11 1009.46 1009.87 1010.30 1010.74 1011.16
1014.64 1015.41 1016.25 1017.07 1017.80 1018.38 1018.77 1018.95 1018.94 1018.79 1018.55 1018.29 1018.05 1017.85 1017.70 1017.58 1017.44 1017.25 1016.98 1016.62 1016.19 1015.70 1015.20 1014.73 1014.31 1013.96 1013.65 1013.37 1013.08 1012.74 1012.33 1011.86 1011.33 1010.78 1010.23 1009.72 1009.28 1008.92 1008.66 1008.51 1008.47 1008.53 1008.69 1008.95 1009.30 1009.72 1010.19 1010.66 1011.11
1015.52 1016.26 1017.00 1017.66 1018.20 1018.59 1018.81 1018.88 1018.83 1018.70 1018.54 1018.38 1018.23 1018.09 1017.96 1017.80 1017.59 1017.32 1016.98 1016.58 1016.14 1015.70 1015.27 1014.88 1014.54 1014.22 1013.91 1013.59 1013.22 1012.80 1012.33 1011.81 1011.28 1010.76 1010.26 1009.80 1009.40 1009.06 1008.77 1008.56 1008.44 1008.42 1008.51 1008.72 1009.05 1009.47 1009.96 1010.47 1010.95
1016.37 1017.07 1017.69 1018.19 1018.53 1018.73 1018.79 1018.76 1018.68 1018.58 1018.50 1018.44 1018.39 1018.33 1018.23 1018.05 1017.80 1017.46 1017.06 1016.62 1016.18 1015.76 1015.39 1015.05 1014.73 1014.41 1014.06 1013.67 1013.21 1012.71 1012.18 1011.64 1011.13 1010.65 1010.23 1009.84 1009.49 1009.15 1008.84 1008.55 1008.33 1008.20 1008.19 1008.33 1008.63 1009.06 1009.59 1010.14 1010.67
1017.17 1017.81 1018.32 1018.66 1018.82 1018.84 1018.76 1018.64 1018.54 1018.48 1018.47 1018.51 1018.56 1018.57 1018.50 1018.32 1018.03 1017.64 1017.18 1016.71 1016.25 1015.84 1015.48 1015.15 1014.83 1014.48 1014.07 1013.59 1013.05 1012.47 1011.89 1011.35 1010.87 1010.46 1010.11 1009.80 1009.49 1009.15 1008.79 1008.41 1008.07 1007.82 1007.70 1007.77 1008.04 1008.48 1009.06 1009.68 1010.29
1017.94 1018.51 1018.91 1019.10 1019.10 1018.97 1018.77 1018.57 1018.44 1018.41 1018.47 1018.60 1018.72 1018.79 1018.74 1018.56 1018.23 1017.79 1017.29 1016.78 1016.29 1015.87 1015.50 1015.16 1014.81 1014.41 1013.93 1013.37 1012.74 1012.10 1011.48 1010.94 1010.50 1010.16 1009.89 1009.64 1009.36 1009.01 1008.59 1008.12 1007.65 1007.28 1007.06 1007.06 1007.31 1007.78 1008.42 1009.14 1009.84
1018.69 1019.20 1019.49 1019.55 1019.41 1019.15 1018.84 1018.57 1018.42 1018.40 1018.50 1018.68 1018.86 1018.96 1018.93 1018.74 1018.38 1017.89 1017.34 1016.79 1016.27 1015.82 1015.43 1015.06 1014.67 1014.21 1013.66 1013.02 1012.33 1011.63 1010.99 1010.45 1010.05 1009.77 1009.55 1009.35 1009.09 1008.72 1008.24 1007.68 1007.11 1006.62 1006.32 1006.27 1006.52 1007.03 1007.75 1008.58 1009.39
1019.48 1019.92 1020.10 1020.04 1019.78 1019.40 1018.99 1018.65 1018.45 1018.43 1018.54 1018.74 1018.94 1019.06 1019.04 1018.83 1018.44 1017.92 1017.32 1016.72 1016.17 1015.69 1015.26 1014.86 1014.42 1013.91 1013.30 1012.60 1011.85 1011.10 1010.44 1009.91 1009.53 1009.28 1009.11 1008.93 1008.68 1008.30 1007.77 1007.14 1006.49 1005.93 1005.57 1005.50 1005.75 1006.31 1007.12 1008.05 1008.98
1020.34 1020.70 1020.78 1020.61 1020.23 1019.74 1019.24 1018.82 1018.56 1018.48 1018.57 1018.76 1018.96 1019.08 1019.05 1018.82 1018.41 1017.86 1017.24 1016.60 1016.02 1015.50 1015.03 1014.59 1014.11 1013.56 1012.90 1012.15 1011.35 1010.57 1009.88 1009.33 1008.95 1008.71 1008.55 1008.39 1008.15 1007.76 1007.22 1006.56 1005.87 1005.27 1004.89 1004.81 1005.09 1005.70 1006.57 1007.59 1008.62
1021.26 1021.53 1021.53 1021.26 1020.78 1020.18 1019.57 1019.05 1018.70 1018.56 1018.59 1018.73 1018.90 1019.00 1018.96 1018.73 1018.31 1017.75 1017.10 1016.44 1015.82 1015.27 1014.77 1014.29 1013.78 1013.18 1012.49 1011.70 1010.86 1010.04 1009.31 1008.73 1008.33 1008.07 1007.90 1007.74 1007.50 1007.13 1006.60 1005.95 1005.27 1004.69 1004.31 1004.25 1004.55 1005.19 1006.11 1007.19 1008.28
1022.18 1022.39 1022.31 1021.96 1021.39 1020.70 1019.98 1019.35 1018.89 1018.64 1018.57 1018.65 1018.77 1018.84 1018.78 1018.56 1018.14 1017.58 1016.93 1016.25 1015.61 1015.02 1014.49 1013.97 1013.43 1012.81 1012.08 1011.26 1010.39 1009.52 1008.74 1008.11 1007.64 1007.34 1007.14 1006.96 1006.73 1006.39 1005.90 1005.31 1004.69 1004.15 1003.82 1003.78 1004.09 1004.75 1005.68 1006.78 1007.91
1023.03 1023.19 1023.07 1022.67 1022.04 1021.27 1020.45 1019.70 1019.10 1018.72 1018.54 1018.51 1018.57 1018.61 1018.54 1018.32 1017.93 1017.38 1016.73 1016.04 1015.37 1014.75 1014.18 1013.63 1013.05 1012.41 1011.66 1010.82 1009.91 1008.99 1008.15 1007.43 1006.88 1006.50 1006.24 1006.03 1005.81 1005.51 1005.10 1004.59 1004.07 1003.62 1003.34 1003.34 1003.66 1004.30 1005.21 1006.30 1007.42
1023.71 1023.87 1023.76 1023.35 1022.69 1021.86 1020.95 1020.08 1019.34 1018.81 1018.49 1018.36 1018.33 1018.33 1018.25 1018.04 1017.66 1017.13 1016.48 1015.78 1015.08 1014.41 1013.80 1013.21 1012.61 1011.94 1011.18 1010.32 1009.38 1008.41 1007.49 1006.68 1006.02 1005.53 1005.19 1004.94 1004.72 1004.46 1004.14 1003.75 1003.34 1002.99 1002.79 1002.82 1003.14 1003.75 1004.62 1005.66 1006.76
1024.15 1024.37 1024.31 1023.95 1023.31 1022.45 1021.47 1020.49 1019.60 1018.92 1018.45 1018.19 1018.07 1018.01 1017.92 1017.72 1017.36 1016.83 1016.18 1015.45 1014.71 1013.99 1013.32 1012.69 1012.05 1011.37 1010.60 1009.73 1008.76 1007.75 1006.74 1005.82 1005.04 1004.43 1003.99 1003.68 1003.44 1003.23 1002.99 1002.72 1002.44 1002.20 1002.09 1002.16 1002.47 1003.04 1003.85 1004.83 1005.90
1024.35 1024.67 1024.73 1024.47 1023.89 1023.04 1022.01 1020.92 1019.90 1019.05 1018.42 1018.02 1017.80 1017.68 1017.56 1017.35 1017.00 1016.47 1015.80 1015.04 1014.24 1013.46 1012.72 1012.04 1011.37 1010.67 1009.90 1009.02 1008.04 1006.98 1005.90 1004.87 1003.96 1003.22 1002.66 1002.27 1002.00 1001.81 1001.65 1001.49 1001.34 1001.22 1001.19 1001.30 1001.61 1002.15 1002.90 1003.82 1004.86
1024.35 1024.82 1025.03 1024.91 1024.43 1023.62 1022.56 1021.38 1020.22 1019.21 1018.42 1017.87 1017.54 1017.34 1017.18 1016.95 1016.59 1016.05 1015.35 1014.53 1013.67 1012.81 1012.00 1011.26 1010.55 1009.84 1009.07 1008.20 1007.21 1006.11 1004.97 1003.84 1002.81 1001.93 1001.25 1000.76 1000.45 1000.27 1000.17 1000.11 1000.07 1000.06 1000.11 1000.28 1000.60 1001.11 1001.81 1002.70 1003.71
1024.27 1024.91 1025.30 1025.34 1024.97 1024.20 1023.12 1021.85 1020.56 1019.38 1018.41 1017.71 1017.26 1016.98 1016.77 1016.51 1016.13 1015.57 1014.83 1013.96 1013.02 1012.09 1011.20 1010.39 1009.65 1008.92 1008.15 1007.29 1006.30 1005.18 1003.99 1002.77 1001.63 1000.62 999.82 999.24 998.88 998.69 998.63 998.64 998.70 998.79 998.93 999.15 999.49 1000.00 1000.68 1001.55 1002.55
1024.27 1025.08 1025.63 1025.81 1025.53 1024.80 1023.68 1022.32 1020.88 1019.53 1018.39 1017.54 1016.96 1016.59 1016.32 1016.04 1015.64 1015.05 1014.28 1013.36 1012.35 1011.33 1010.38 1009.51 1008.72 1007.97 1007.19 1006.33 1005.35 1004.22 1002.98 1001.70 1000.46 999.34 998.44 997.77 997.34 997.14 997.10 997.18 997.32 997.50 997.72 998.00 998.39 998.91 999.61 1000.47 1001.49
1024.48 1025.41 1026.09 1026.36 1026.13 1025.39 1024.21 1022.73 1021.14 1019.61 1018.31 1017.30 1016.61 1016.15 1015.83 1015.52 1015.10 1014.51 1013.71 1012.75 1011.69 1010.61 1009.58 1008.65 1007.81 1007.03 1006.23 1005.36 1004.37 1003.22 1001.95 1000.62 999.30 998.11 997.12 996.38 995.90 995.68 995.66 995.79 996.00 996.26 996.56 996.92 997.36 997.93 998.65 999.54 1000.58
1024.97 1025.97 1026.70 1027.00 1026.76 1025.95 1024.67 1023.05 1021.29 1019.59 1018.13 1016.98 1016.17 1015.64 1015.28 1014.96 1014.54 1013.95 1013.15 1012.17 1011.08 1009.94 1008.85 1007.85 1006.95 1006.12 1005.28 1004.38 1003.36 1002.18 1000.88 999.50 998.14 996.88 995.84 995.05 994.55 994.33 994.33 994.51 994.78 995.12 995.51 995.94 996.45 997.08 997.85 998.78 999.85
1025.74 1026.73 1027.43 1027.67 1027.33 1026.41 1024.98 1023.20 1021.27 1019.42 1017.80 1016.54 1015.64 1015.06 1014.67 1014.35 1013.95 1013.38 1012.60 1011.63 1010.51 1009.34 1008.20 1007.12 1006.14 1005.23 1004.31 1003.35 1002.26 1001.04 999.69 998.27 996.88 995.60 994.53 993.73 993.24 993.03 993.08 993.31 993.65 994.08 994.54 995.06 995.66 996.36 997.20 998.19 999.31
1026.68 1027.58 1028.17 1028.27 1027.78 1026.69 1025.09 1023.14 1021.06 1019.06 1017.33 1015.98 1015.02 1014.40 1014.01 1013.70 1013.33 1012.80 1012.05 1011.10 1009.98 1008.79 1007.58 1006.43 1005.35 1004.32 1003.29 1002.21 1001.03 999.72 998.31 996.85 995.43 994.15 993.09 992.32 991.87 991.72 991.83 992.13 992.57 993.08 993.64 994.26 994.94 995.73 996.65 997.71 998.89
1027.62 1028.37 1028.78 1028.68 1027.99 1026.71 1024.93 1022.84 1020.63 1018.54 1016.74 1015.33 1014.34 1013.71 1013.32 1013.04 1012.71 1012.21 1011.50 1010.57 1009.46 1008.24 1006.98 1005.73 1004.52 1003.34 1002.16 1000.92 999.59 998.17 996.67 995.16 993.73 992.46 991.44 990.74 990.36 990.30 990.51 990.91 991.45 992.07 992.74 993.46 994.26 995.15 996.16 997.31 998.55
1028.38 1028.93 1029.12 1028.79 1027.88 1026.41 1024.49 1022.29 1020.01 1017.88 1016.06 1014.65 1013.66 1013.04 1012.67 1012.40 1012.09 1011.63 1010.95 1010.03 1008.92 1007.67 1006.33 1004.98 1003.62 1002.26 1000.88 999.45 997.94 996.36 994.76 993.18 991.73 990.48 989.53 988.92 988.66 988.72 989.06 989.60 990.27 991.01 991.81 992.65 993.56 994.57 995.68 996.92 998.25
1028.80 1029.13 1029.07 1028.52 1027.41 1025.80 1023.79 1021.54 1019.27 1017.17 1015.40 1014.03 1013.07 1012.47 1012.11 1011.85 1011.55 1011.09 1010.41 1009.49 1008.36 1007.06 1005.65 1004.18 1002.66 1001.10 999.50 997.85 996.13 994.37 992.63 990.97 989.49 988.28 987.41 986.91 986.78 987.00 987.49 988.19 989.01 989.90 990.84 991.82 992.85 993.98 995.20 996.54 997.96
Thickness
5705 5706 5706 5699 5683 5671 5676 5685 5690 5695 5699 5704 5708 5709 5709 5709 5709 5706 5718 5727 5733 5739 5744 5748 5751 5754 5756 5758 5758 5759 5759 5760 5761 5761 5761 5761 5760 5760 5759 5758 5757 5756 5755 5754 5753 5751 5750 5748 5746
5699 5700 5695 5683 5670 5665 5673 5681 5684 5689 5694 5698 5701 5703 5703 5703 5708 5709 5713 5720 5727 5732 5737 5741 5744 5747 5749 5751 5753 5754 5754 5755 5756 5756 5756 5756 5756 5756 5755 5754 5754 5753 5752 5751 5749 5748 5746 5745 5743
5694 5692 5680 5669 5663 5663 5673 5677 5679 5684 5687 5688 5689 5692 5692 5695 5699 5701 5706 5713 5720 5725 5729 5733 5737 5740 5743 5745 5747 5748 5749 5749 5750 5751 5751 5751 5751 5751 5751 5751 5750 5750 5749 5747 5746 5744 5743 5741 5740
5684 5676 5667 5660 5662 5664 5666 5669 5672 5674 5678 5679 5678 5678 5683 5690 5692 5695 5701 5707 5711 5716 5721 5725 5729 5732 5735 5737 5739 5741 5743 5744 5745 5746 5746 5747 5747 5747 5747 5747 5746 5746 5745 5744 5742 5741 5739 5738 5736
5672 5661 5654 5649 5654 5658 5659 5661 5664 5663 5665 5667 5667 5666 5673 5682 5686 5690 5694 5699 5702 5707 5712 5716 5721 5725 5727 5730 5732 5734 5736 5738 5739 5740 5741 5742 5742 5743 5743 5742 5742 5742 5741 5740 5739 5737 5736 5735 5733
5654 5647 5639 5641 5646 5650 5651 5652 5654 5653 5654 5657 5656 5658 5665 5674 5677 5681 5685 5688 5693 5697 5702 5707 5712 5716 5719 5722 5725 5727 5729 5731 5733 5734 5735 5736 5737 5738 5738 5738 5738 5737 5737 5736 5735 5734 5733 5731 5730
5642 5635 5633 5636 5635 5640 5644 5643 5643 5642 5643 5646 5649 5648 5656 5663 5667 5671 5674 5678 5683 5688 5692 5697 5702 5706 5710 5713 5717 5719 5722 5724 5726 5728 5729 5731 5732 5732 5733 5733 5733 5733 5733 5732 5731 5729 5729 5728 5726
5636 5628 5626 5624 5626 5631 5633 5634 5635 5633 5635 5639 5641 5639 5644 5653 5657 5660 5664 5668 5673 5677 5681 5687 5692 5697 5701 5704 5708 5711 5713 5716 5719 5720 5722 5724 5725 5726 5727 5728 5729 5729 5728 5727 5726 5725 5724 5723 5722
5631 5616 5614 5618 5619 5623 5624 5623 5625 5627 5626 5627 5630 5632 5636 5641 5644 5647 5652 5656 5661 5666 5670 5675 5680 5686 5691 5694 5698 5701 5704 5707 5710 5712 5714 5716 5718 5719 5720 5722 5723 5723 5723 5723 5722 5721 5720 5719 5717
5616 5607 5612 5615 5614 5613 5612 5611 5612 5614 5613 5615 5618 5621 5624 5626 5629 5632 5636 5641 5647 5653 5658 5663 5668 5673 5679 5683 5687 5690 5694 5697 5700 5704 5706 5708 5710 5712 5713 5715 5716 5717 5718 5718 5717 5716 5715 5714 5712
5610 5604 5606 5607 5606 5603 5600 5600 5601 5600 5600 5605 5607 5610 5611 5613 5614 5618 5622 5627 5632 5639 5645 5650 5654 5660 5665 5671 5675 5679 5683 5687 5690 5694 5697 5700 5702 5704 5705 5707 5708 5710 5711 5712 5712 5711 5710 5709 5708
5600 5599 5599 5598 5596 5592 5590 5590 5589 5589 5594 5599 5598 5597 5598 5598 5600 5603 5607 5613 5620 5625 5632 5637 5641 5645 5651 5657 5663 5667 5671 5675 5679 5683 5687 5691 5693 5695 5697 5700 5702 5703 5705 5706 5706 5705 5704 5703 5702
5590 5590 5590 5588 5585 5582 5581 5579 5579 5583 5587 5586 5586 5585 5584 5585 5588 5590 5594 5599 5604 5611 5617 5622 5627 5632 5636 5642 5649 5654 5659 5663 5668 5672 5676 5681 5684 5686 5689 5691 5694 5696 5698 5699 5699 5698 5698 5697 5696
5582 5579 5577 5577 5576 5576 5574 5573 5569 5578 5577 5574 5573 5572 5572 5572 5575 5578 5581 5585 5591 5597 5602 5608 5612 5617 5621 5627 5634 5640 5645 5651 5655 5660 5665 5669 5674 5678 5680 5683 5685 5688 5690 5692 5692 5692 5692 5691 5691
5573 5569 5570 5571 5569 5569 5565 5565 5564 5569 5565 5562 5561 5560 5561 5562 5563 5565 5567 5570 5574 5580 5586 5592 5597 5601 5606 5611 5618 5625 5631 5636 5641 5647 5653 5658 5663 5667 5671 5674 5677 5679 5682 5683 5684 5684 5684 5684 5684
5563 5555 5555 5563 5561 5560 5553 5553 5565 5560 5555 5552 5552 5550 5550 5551 5551 5551 5554 5556 5559 5563 5570 5576 5581 5586 5590 5595 5601 5609 5615 5621 5628 5634 5640 5646 5651 5656 5661 5665 5669 5671 5673 5675 5676 5677 5677 5677 5677
5544 5537 5539 5546 5551 5549 5542 5543 5556 5551 5545 5543 5542 5540 5539 5540 5541 5540 5542 5543 5545 5548 5553 5560 5565 5570 5575 5581 5587 5592 5599 5607 5614 5621 5627 5633 5638 5645 5650 5654 5659 5662 5664 5667 5669 5670 5670 5670 5670
5537 5529 5527 5529 5539 5537 5530 5537 5549 5546 5539 5533 5531 5530 5528 5530 5531 5531 5531 5531 5532 5535 5540 5545 5550 5555 5560 5567 5572 5578 5585 5593 5600 5607 5615 5621 5627 5633 5638 5643 5647 5651 5654 5657 5661 5662 5662 5662 5663
5532 5523 5517 5525 5531 5526 5525 5533 5541 5540 5532 5527 5523 5520 5519 5521 5521 5520 5520 5520 5522 5524 5526 5531 5536 5542 5546 5551 5558 5563 5571 5580 5587 5594 5603 5609 5614 5619 5625 5631 5635 5640 5644 5648 5652 5654 5653 5653 5653
5523 5514 5509 5519 5523 5521 5516 5523 5532 5531 5526 5522 5517 5513 5510 5511 5512 5511 5510 5509 5511 5514 5516 5520 5525 5529 5534 5539 5546 5551 5559 5568 5576 5583 5589 5596 5602 5608 5613 5619 5624 5630 5634 5638 5642 5646 5645 5646 5646
5520 5509 5507 5508 5510 5507 5499 5516 5523 5525 5520 5515 5509 5505 5501 5500 5500 5501 5501 5502 5503 5504 5505 5510 5513 5518 5523 5529 5535 5540 5545 5553 5562 5570 5577 5583 5590 5596 5602 5608 5613 5619 5625 5629 5635 5638 5640 5640 5639
5513 5516 5508 5502 5487 5480 5482 5484 5511 5511 5507 5505 5500 5494 5490 5490 5490 5492 5493 5494 5495 5496 5497 5499 5502 5507 5514 5519 5522 5527 5533 5542 5552 5559 5565 5572 5578 5585 5592 5598 5603 5608 5615 5622 5626 5630 5634 5635 5634
5507 5508 5499 5491 5476 5461 5466 5457 5496 5495 5494 5497 5493 5488 5484 5482 5481 5483 5484 5485 5487 5488 5489 5491 5494 5499 5505 5509 5513 5517 5523 5531 5540 5547 5552 5559 5567 5574 5581 5588 5593 5599 5605 5612 5617 5622 5625 5629 5631
5501 5493 5484 5467 5455 5452 5462 5451 5476 5480 5486 5488 5486 5481 5478 5476 5475 5475 5476 5477 5480 5481 5481 5483 5486 5491 5495 5499 5504 5508 5513 5520 5528 5536 5541 5550 5558 5566 5572 5578 5584 5591 5595 5601 5608 5614 5617 5622 5626
5486 5472 5464 5457 5440 5450 5459 5451 5472 5488 5484 5479 5477 5473 5471 5468 5467 5468 5469 5470 5471 5473 5474 5475 5477 5482 5486 5490 5496 5501 5505 5511 5519 5527 5534 5540 5549 5558 5565 5570 5576 5581 5587 5593 5598 5604 5609 5615 5619
5475 5466 5452 5445 5438 5446 5449 5451 5476 5485 5480 5474 5469 5465 5463 5462 5461 5460 5460 5460 5462 5463 5464 5466 5469 5473 5478 5482 5488 5493 5499 5505 5511 5519 5526 5533 5542 5550 5558 5563 5568 5574 5580 5584 5589 5594 5601 5607 5611
5464 5453 5448 5426 5410 5409 5434 5442 5464 5480 5476 5470 5463 5459 5456 5455 5454 5453 5454 5453 5453 5454 5455 5457 5460 5465 5469 5474 5480 5486 5493 5498 5504 5512 5519 5526 5534 5542 5550 5555 5561 5568 5573 5578 5582 5587 5594 5600 5604
5460 5444 5426 5417 5410 5413 5424 5428 5452 5465 5468 5465 5458 5452 5451 5449 5448 5447 5448 5448 5448 5447 5447 5449 5453 5457 5461 5466 5471 5479 5485 5491 5498 5504 5511 5518 5526 5533 5540 5548 5555 5562 5568 5573 5578 5582 5588 5593 5599
5444 5435 5426 5411 5403 5399 5407 5448 5464 5457 5458 5453 5449 5446 5444 5443 5442 5441 5441 5441 5441 5441 5442 5444 5447 5451 5455 5460 5466 5471 5478 5485 5491 5498 5505 5511 5518 5525 5533 5541 5549 5557 5564 5569 5573 5578 5582 5588 5592
5442 5432 5419 5412 5401 5385 5386 5442 5471 5458 5450 5444 5442 5441 5439 5437 5436 5435 5435 5435 5435 5435 5437 5439 5442 5445 5449 5454 5460 5466 5472 5478 5484 5491 5498 5505 5512 5518 5526 5535 5545 5554 5561 5566 5571 5574 5578 5584 5589